Regional Weather Roundup
Issued by NWS

Home | Current Version | Previous Version | Text Only | Print | Product List | Glossary On
Versions: 1 2 3 4 5 6 7 8 9 10 11 12 13 14 15 16 17 18 19 20 21 22 23 24 25 26 27 28 29 30 31 32 33 34 35 36 37 38 39 40 41 42 43 44 45 46 47 48 49 50
000
ASUS44 KBMX 301110
RWRAL

ALABAMA REGIONAL WEATHER ROUNDUP
NATIONAL WEATHER SERVICE BIRMINGHAM AL
500 AM CST FRI JAN 30 2015

NOTE: "FAIR" INDICATES FEW OR NO CLOUDS BELOW 12,000 FEET
WITH NO SIGNIFICANT WEATHER AND/OR OBSTRUCTIONS TO VISIBILITY.

THE REMARK "TC" DENOTES TEMPERATURE IN DEGREES CELSIUS.

ALZ001>011-014-016>018-020-301200-
NORTH ALABAMA

CITY           SKY/WX    TMP DP  RH WIND       PRES   REMARKS
MUSCLE SHOALS  CLOUDY    42  28  57 N12G17    30.38R
HUNTSVILLE     CLOUDY    41  28  60 N8        30.34S
DECATUR        CLOUDY    40  30  67 N8        30.35S WCI  34
HALEYVILLE       N/A     38  29  70 N14       30.36R WCI  30
GADSDEN        CLOUDY    39  25  56 N7        30.31S WCI  34
$$

ALZ012-013-022-023-030>036-040>044-301200-
WEST CENTRAL ALABAMA

CITY           SKY/WX    TMP DP  RH WIND       PRES   REMARKS
TUSCALOOSA     MOCLDY    40  30  67 NW5       30.35R
$$

ALZ015-024>027-033>036-040>044-301200-
CENTRAL ALABAMA

CITY           SKY/WX    TMP DP  RH WIND       PRES   REMARKS
BIRMINGHAM     MOCLDY    40  27  59 N13       30.33R WCI  32
MONTGOMERY     PTCLDY    45  33  63 N13       30.30R
SHELBY CO ARPT CLOUDY    42  30  62 N6        30.31R
MAXWELL AFB    PTCLDY    44  34  67 N9        30.30R
GREENVILLE     FAIR      44  34  67 N9        30.27R
$$

ALZ019-021-028-029-037-038-045>048-301200-
EAST CENTRAL ALABAMA

CITY           SKY/WX    TMP DP  RH WIND       PRES   REMARKS
ANNISTON       CLEAR     41  27  57 N10G18    30.29S
ALEXANDER CITY CLEAR     42  28  55 N12G21    30.27S
AUBURN         PTCLDY    39  27  60 N15G23    30.27R WCI  31
$$

ALZ051>064-301200-
SOUTHWEST ALABAMA

CITY           SKY/WX    TMP DP  RH WIND       PRES   REMARKS
MOBILE         PTCLDY    46  37  71 N21G26    30.29R
BROOKLEY FIELD PTCLDY    50  38  63 N17       30.29R
EVERGREEN      CLEAR     45  36  70 N9G20     30.28R
$$

ALZ049-050-065>069-301200-
SOUTHEAST ALABAMA

CITY           SKY/WX    TMP DP  RH WIND       PRES   REMARKS
DOTHAN         MOCLDY    50  41  71 N14       30.24R
OZARK          PTCLDY    49  40  68 N16G23    30.22R
TROY           PTCLDY    45  35  68 N14       30.26R
EUFAULA        MOCLDY    48  37  66 VRB7      30.22R
$$


USA.gov is the U.S. government's official web portal to all federal, state and local government web resources and services.